Terminal Aerodrome Forecast
Issued by NWS

Home | Current Version | Previous Version | Text Only | Print | Product List | Glossary On
Versions: 1 2 3 4 5 6 7 8 9 10 11 12 13 14 15
000
FTUS41 KPBZ 272057 AAA
TAFZZV
TAF AMD
KZZV 272057Z 2721/2818 26009KT P6SM BKN050
      TEMPO 2721/2722 22010G30KT 5SM -TSRA BKN025CB
     FM280000 22010KT P6SM BKN050
     FM280300 25006KT P6SM SCT050=

USA.gov is the U.S. government's official web portal to all federal, state and local government web resources and services.